Location: Kalamazoo
(42.2920°N, 85.5870°W)
Time: 10:11:02
(UTC-04:00)

Daily predictions for brighter satellites

Satellite Brightness Start Highest point End
(mag) Time Altitude Azimuth Time Altitude Azimuth Time Altitude Azimuth
DELTA 2 R/B (1) 4.1 19:08:23 10° W 19:13:50 57° SSW 19:19:18 10° ESE
Meteor 1-28 Rocket 3.2 19:13:25 10° NNE 19:17:11 61° E 19:20:54 10° S
Cosmos 1420 Rocket 4.4 19:12:24 10° N 19:17:31 45° ENE 19:22:33 10° SE
METEOR-M 4.4 19:13:35 10° SE 19:18:38 45° ENE 19:23:43 10° N
CZ-4C R/B 2.9 19:18:19 10° S 19:22:46 30° ESE 19:27:42 10° NE
Cosmos 1484 Rocket 3.1 19:19:29 10° S 19:23:11 70° W 19:26:54 10° NNW
Cosmos 44 Rocket 3.8 19:20:31 10° S 19:24:49 37° ESE 19:29:08 10° NE
SL-16 R/B 4.0 19:21:04 10° NW 19:26:14 37° WSW 19:31:23 10° S
Lacrosse 5 rocket 3.8 19:27:13 10° NW 19:29:22 13° NNW 19:31:29 10° NNE
Cosmos 1703 3.2 19:26:19 10° N 19:30:16 81° E 19:34:10 10° S
Sich 1 4.4 19:31:49 10° NNE 19:34:58 19° ENE 19:38:08 10° ESE
RESURS DK-1 2.8 19:32:14 10° NNW 19:36:21 67° WSW 19:40:26 10° SSE
Cosmos 2366 rocket 4.2 19:30:13 10° SSW 19:36:25 76° W 19:42:37 10° N
Cosmos 1908 3.4 19:32:49 10° S 19:36:37 51° E 19:40:24 10° NNE
COSMO-SKYMED 1 2.7 19:32:55 10° NNE 19:37:12 55° E 19:41:27 10° S
Cosmos 2237 4.2 19:31:50 10° NNW 19:37:36 74° ENE 19:43:18 10° SSE
Cosmos 1626 2.9 19:34:21 10° NNW 19:38:03 58° W 19:41:42 10° S
Cosmos 2237 Rocket 3.5 19:37:54 10° N 19:42:12 21° NE 19:45:24 14° E
Atlas Centaur 2 4.0 19:40:32 10° SW 19:43:02 15° S 19:45:47 10° SSE
Gbstr 26 Del rocket 3.7 19:40:30 10° NW 19:45:19 59° NNE 19:50:40 13° ESE
H-2A R/B 4.1 19:43:54 11° ESE 19:46:39 21° ENE 19:49:37 10° NNE
Cosmos 2151 3.5 19:44:33 10° NNW 19:48:47 64° W 19:52:59 10° S
Cosmos 1805 Rocket 4.0 19:44:50 10° N 19:48:58 38° ENE 19:53:04 10° SE
Cosmos 2227 Rocket 3.5 19:47:08 10° SE 19:50:44 18° E 19:52:07 16° E
SL-16 R/B 4.0 19:51:19 10° NNE 19:53:41 12° NE 19:54:46 12° NE
Cosmos 2058 3.8 19:51:36 10° NNW 19:55:40 53° W 19:59:42 10° S
Cosmos 1666 Rocket 4.2 19:54:18 10° NNE 19:58:10 31° ENE 20:01:59 10° SE
YAOGAN 1 3.6 19:55:21 10° S 19:59:32 50° W 20:03:46 10° NNW
ALOS 2.2 19:58:10 10° SSE 20:02:48 68° ENE 20:07:28 10° N
Cosmos 1300 3.4 20:00:04 10° SSE 20:03:28 31° E 20:06:53 10° NNE
Cosmos 2360 Rocket 3.4 19:58:07 10° NW 20:03:30 46° WSW 20:08:52 10° S
Cosmos 1633 Rocket 3.8 19:59:51 10° NNE 20:03:45 30° ENE 20:06:13 18° SE
Cosmos 1269 Rocket 4.0 19:59:18 10° S 20:04:30 67° ESE 20:09:46 10° NNE
DMSP B5D1-3 4.5 20:00:04 10° NNE 20:05:11 67° ESE 20:10:18 10° S
Cosmos 1980 4.4 20:01:35 10° N 20:06:40 33° NE 20:09:17 22° E
Cosmos 1000 Rocket 4.4 20:04:23 10° N 20:10:39 78° E 20:16:49 10° S
Cosmos 1821 Rocket 3.9 20:06:17 10° S 20:12:25 70° E 20:18:38 10° NNE
Cosmos 1934 Rocket 4.1 20:06:22 10° SSE 20:12:29 53° E 20:18:39 10° NNE
Aureole 2 Rocket 2.7 20:09:30 10° NNW 20:13:24 61° ENE 20:16:42 15° SSE
SPOT 3 Rocket 3.9 20:08:17 10° S 20:13:27 69° WSW 20:18:41 10° NNW
COSMOS 2428 2.7 20:08:34 10° NNW 20:14:16 85° WSW 20:19:57 10° SSE
Abrixas 2.2 20:13:33 10° WSW 20:15:20 55° WSW 20:15:20 55° WSW
Cosmos 2333 Rocket 2.3 20:11:36 10° NNW 20:17:16 55° ENE 20:21:36 17° SE
Cosmos 2239 Rocket 4.4 20:12:17 10° S 20:18:23 77° E 20:24:33 10° N
Cosmos 2219 3.2 20:13:56 10° SSW 20:19:41 85° ESE 20:25:28 10° NNE
CZ-4 R/B 4.3 20:17:05 10° SW 20:20:13 20° W 20:23:20 10° NW
FENGYUN 3A 3.7 20:15:10 10° SSE 20:20:34 86° WSW 20:26:02 10° NNW
BREEZE-M DEB (TANK) 4.1 20:02:23 10° WNW 20:23:22 69° NNE 20:26:20 30° E
Cosmos 2221 3.3 20:21:14 10° SSW 20:25:27 53° W 20:29:45 10° N
BREEZE-M R/B 3.5 20:23:21 10° SSW 20:25:04 28° SSE 20:25:04 28° SSE
Iridium 4 Rocket 3.9 20:20:13 10° S 20:25:49 79° W 20:31:45 10° N
Cosmos 2297 Rocket 3.0 20:23:04 10° SSE 20:27:02 28° ESE 20:27:02 28° ESE
Cosmos 494 Rocket 4.2 20:24:01 10° S 20:28:49 43° ESE 20:30:46 30° NE
Cosmos 2098 Rocket 3.6 20:24:17 10° S 20:28:54 79° W 20:34:52 10° N
Cosmos 2084 3.1 20:27:31 10° NNW 20:31:17 60° NE 20:31:39 57° E
Cosmos 44 3.9 20:29:16 10° SW 20:33:29 48° NW 20:37:04 14° NNE
Cosmos 1110 Rocket 4.0 20:28:44 10° NNW 20:34:02 62° ENE 20:36:35 30° SE
Abrixas rocket 3.5 20:32:57 10° NW 20:35:41 31° N 20:35:41 31° N
Meteor 2-10 3.8 20:31:12 10° S 20:36:13 75° E 20:41:21 10° NNE
USA 32 4.4 20:31:49 10° N 20:36:35 40° ENE 20:36:35 40° ENE
Cosmos 2082 4.4 20:32:09 10° SSE 20:36:17 33° SE 20:36:17 33° SE
Meteor 2-2 Rocket 4.2 20:32:23 10° S 20:37:57 57° E 20:43:27 10° NNE
BREEZE-M DEB (TANK) 3.2 20:30:09 10° W 20:39:47 61° N 20:41:01 43° ENE
Cosmos 1726 3.0 20:37:33 10° SSW 20:41:09 50° W 20:44:45 10° N
Cosmos 2123 Rocket 3.9 20:36:05 10° N 20:42:22 79° E 20:48:38 10° S
FengYun 1-2 T 4.1 20:37:58 10° SSE 20:43:28 88° E 20:49:00 10° NNW
Cosmos 1605 Rocket 3.8 20:40:49 10° S 20:46:50 66° E 20:52:52 10° NNE
Cosmos 2219 Rocket 2.4 20:45:20 10° NNW 20:50:55 69° WSW 20:55:32 15° SSE
FREGAT/IRIS 4.5 20:56:22 29° NW 20:56:22 29° NW 20:58:11 10° NNW
Cosmos 2251 Rocket 3.9 20:52:40 10° S 20:56:38 47° SSE 20:56:38 47° SSE
Envisat 3.9 21:01:48 35° NNE 21:01:48 35° NNE 21:05:02 10° N
SJ-6B 3.7 21:06:28 44° NW 21:06:28 44° NW 21:09:19 10° NNW
NOSS 0 Rocket 4.1 21:02:28 10° NNW 21:08:36 69° WSW 21:11:40 31° S
Resurs 01 Rocket 3.3 21:11:19 24° N 21:11:19 24° N 21:13:07 10° N
Lacrosse 5 rocket 4.0 21:08:33 10° NNW 21:09:34 12° N 21:09:34 12° N
MOS 1-B Rocket 3.7 21:09:36 57° SSE 21:10:54 83° ENE 21:17:06 10° NNW
CZ-4C R/B 3.2 21:05:57 10° WSW 21:10:59 43° NW 21:15:05 18° NNE
Sich 1 4.5 21:08:45 10° NNW 21:12:48 37° W 21:16:51 10° SSW
Cosmos 1447 Rocket 4.3 21:14:09 10° N 21:20:31 85° E 21:21:16 71° SSE
BREEZE M DEB (TANK) 3.8 21:08:50 10° WNW 21:22:56 82° NNE 21:23:10 80° ENE
Cosmos 2237 Rocket 2.4 21:21:06 10° NNW 21:26:47 67° WSW 21:27:17 63° SW
USA 267 3.4 21:32:24 56° S 21:32:24 56° S 21:37:41 10° SW
Cosmos 2227 Rocket 2.4 21:28:32 10° SSW 21:34:04 66° WNW 21:34:04 66° WNW
SL-16 R/B 3.2 21:33:16 10° NNW 21:36:40 36° N 21:36:40 36° N
Meteor 2-3 Rocket 4.5 21:45:28 10° NNW 21:50:10 50° WNW 21:50:10 50° WNW
CZ-3A R/B 3.8 21:40:05 10° NW 21:56:24 72° NNE 21:56:32 72° NE
ATLAS 5 CENTAUR R/B 4.5 21:52:47 10° N 21:54:05 14° N 21:54:05 14° N
Cosmos 2333 Rocket 4.3 21:56:47 10° NW 22:01:05 22° W 22:03:41 16° SW
USA 234 4.2 22:08:10 39° N 22:08:10 39° N 22:12:38 10° NW
Cosmos 2297 Rocket 4.0 22:06:25 10° SW 22:08:58 25° WSW 22:08:58 25° WSW
